Home   Weather   Port Elizabeth   Past weeks

Flag for South Africa Past Weather in Port Elizabeth, South Africa — Yesterday and Last 2 Weeks

Now
72 °F

Partly sunny.


Feels Like: 76 °F
Forecast: 60 / 70 °F
Wind: 9 mph from South

Location: Port Elizabeth Airport

Current Time: Apr 23, 2017 at 3:53:33 pm

Latest Report: Apr 23, 2017 at 3:00 pm


Visibility: N/A

Pressure: 30.21 "Hg

Humidity: 61%

Dew Point: 57 °F

Location of Port ElizabethLocation

Past Weather in Port Elizabeth — Graph

°F

Port Elizabeth Temperature Yesterday

Maximum temperature yesterday: 72 °F (at 12:00 pm)
Minimum temperature yesterday: 48 °F (at 6:26 am)
Average temperature yesterday: 62 °F

High & Low Weather Summary for the Past Weeks

 TemperatureHumidityPressure
High95 °F (Apr 12, 1:00 pm)100% (Apr 10, 5:31 am)30.45 "Hg (Apr 10, 5:31 am)
Low48 °F (Apr 22, 6:26 am)26% (Apr 12, 1:00 pm)29.62 "Hg (Apr 12, 4:00 pm)
Average64 °F80%30.11 "Hg
* Reported Apr 8 2:00 pm — Apr 23 2:00 pm, Port Elizabeth, Weather by CustomWeather, © 2017

Note: Actual official high and low records may vary slightly from our data, if they occured in-between our weather recording intervals... More about our weather records

Advertising

Port Elizabeth Weather History for the Previous 24 Hours

Scroll right to see more
 ConditionsComfort  
Time TempWeatherWind HumidityBarometerVisibility
2:00 pm
Sun, Apr 23
73 °FPartly sunny.8 mph53%30.21 "HgN/A
1:00 pm73 °FBroken clouds.9 mph57%30.24 "HgN/A
12:56 pm73 °FBroken clouds.9 mph53%30.21 "HgN/A
12:00 pm72 °FPartly sunny.9 mph57%30.24 "HgN/A
11:00 am72 °FPassing clouds.10 mph61%30.24 "HgN/A
10:00 am70 °FPassing clouds.13 mph64%30.24 "HgN/A
9:00 am66 °FPassing clouds.9 mph83%30.24 "HgN/A
8:00 am64 °FPassing clouds.7 mph94%30.21 "HgN/A
7:00 am63 °FBroken clouds.8 mph94%30.18 "Hg6 mi
6:31 am61 °FPartly cloudy.8 mph94%30.18 "Hg6 mi
6:00 am63 °FFog.3 mph88%30.15 "Hg1 mi
5:24 am61 °FFog.8 mph94%30.15 "Hg1 mi
4:45 am61 °FFog.8 mph94%30.12 "Hg2 mi
4:00 am61 °FPassing clouds.6 mph94%30.12 "Hg6 mi
3:19 am57 °FFog.3 mph94%30.12 "Hg5 mi
3:00 am59 °FPassing clouds.3 mph88%30.12 "Hg6 mi
2:00 am57 °FPassing clouds.3 mph94%30.12 "HgN/A
1:00 am61 °FPassing clouds.3 mph94%30.12 "HgN/A
12:00 am63 °FPassing clouds.5 mph100%30.12 "HgN/A
9:00 pm
Sat, Apr 22
64 °FClear.5 mph94%30.12 "Hg10 mi
8:00 pm64 °FClear.6 mph94%30.12 "Hg10 mi
7:00 pm64 °FClear.6 mph94%30.12 "Hg10 mi
6:00 pm66 °FClear.7 mph94%30.09 "Hg10 mi
5:00 pm70 °FPassing clouds.9 mph78%30.09 "HgN/A
4:00 pm72 °FSunny.13 mph73%30.09 "Hg10 mi
3:00 pm72 °FPassing clouds.15 mph73%30.09 "HgN/A
Weather by CustomWeather, © 2017

See weather overviewHow to use our weather pages